Time,TemperatureF,DewpointF,PressureIn,WindDirection,WindDirectionDegrees,WindSpeedMPH,WindSpeedGustMPH,Humidity,HourlyPrecipIn,Conditions,Clouds,dailyrainin,SoftwareType,DateUTC
2013-04-06 00:00:00,34.7,25.1,30.24,East,90,0.0,0.0,68,0.00,,,0.00,WUHU216HW,2013-04-06 04:00:00,
2013-04-06 00:01:00,34.5,24.9,30.24,ESE,113,0.0,0.0,68,0.00,,,0.00,WUHU216HW,2013-04-06 04:01:00,
2013-04-06 00:06:00,34.3,25.1,30.24,ESE,113,0.0,0.0,69,0.00,,,0.00,WUHU216HW,2013-04-06 04:06:00,
2013-04-06 00:12:00,34.5,25.3,30.24,ENE,68,0.0,0.0,69,0.00,,,0.00,WUHU216HW,2013-04-06 04:12:00,
2013-04-06 00:17:00,34.7,25.5,30.23,ENE,68,0.0,0.0,69,0.00,,,0.00,WUHU216HW,2013-04-06 04:17:00,
2013-04-06 00:22:00,34.8,25.7,30.23,ESE,113,0.0,0.0,69,0.00,,,0.00,WUHU216HW,2013-04-06 04:22:00,
2013-04-06 00:27:00,34.7,25.5,30.23,East,90,0.0,0.0,69,0.00,,,0.00,WUHU216HW,2013-04-06 04:27:00,
2013-04-06 00:32:00,34.7,25.5,30.23,ENE,68,0.0,0.0,69,0.00,,,0.00,WUHU216HW,2013-04-06 04:32:00,
2013-04-06 00:37:00,34.7,25.5,30.23,ENE,68,0.0,0.0,69,0.00,,,0.00,WUHU216HW,2013-04-06 04:37:00,
2013-04-06 00:42:00,34.5,25.3,30.23,ENE,68,0.0,0.8,69,0.00,,,0.00,WUHU216HW,2013-04-06 04:42:00,
2013-04-06 00:47:00,34.5,25.3,30.23,ENE,68,0.0,0.8,69,0.00,,,0.00,WUHU216HW,2013-04-06 04:47:00,
2013-04-06 00:52:00,34.3,25.5,30.22,ESE,113,0.0,0.0,70,0.00,,,0.00,WUHU216HW,2013-04-06 04:52:00,
2013-04-06 00:57:00,34.3,25.5,30.22,ENE,68,0.0,0.0,70,0.00,,,0.00,WUHU216HW,2013-04-06 04:57:00,
2013-04-06 01:02:00,34.3,25.5,30.22,ENE,68,1.3,1.3,70,0.00,,,0.00,WUHU216HW,2013-04-06 05:02:00,
2013-04-06 01:07:00,34.3,25.5,30.22,ENE,68,0.0,1.3,70,0.00,,,0.00,WUHU216HW,2013-04-06 05:07:00,
2013-04-06 01:12:00,34.1,25.6,30.21,ESE,113,0.0,2.4,71,0.00,,,0.00,WUHU216HW,2013-04-06 05:12:00,
2013-04-06 01:17:00,33.9,25.4,30.22,East,90,0.0,2.4,71,0.00,,,0.00,WUHU216HW,2013-04-06 05:17:00,
2013-04-06 01:23:00,33.9,25.4,30.22,ENE,68,0.0,0.8,71,0.00,,,0.00,WUHU216HW,2013-04-06 05:23:00,
2013-04-06 01:28:00,34.1,25.6,30.22,East,90,0.0,0.6,71,0.00,,,0.00,WUHU216HW,2013-04-06 05:28:00,
2013-04-06 01:33:00,34.1,25.6,30.22,East,90,0.0,0.6,71,0.00,,,0.00,WUHU216HW,2013-04-06 05:33:00,
2013-04-06 01:38:00,34.3,25.8,30.22,ENE,68,0.0,0.8,71,0.00,,,0.00,WUHU216HW,2013-04-06 05:38:00,
2013-04-06 01:43:00,34.5,26.0,30.22,ENE,68,1.3,1.3,71,0.00,,,0.00,WUHU216HW,2013-04-06 05:43:00,
2013-04-06 01:48:00,34.5,26.0,30.22,ESE,113,0.0,1.3,71,0.00,,,0.00,WUHU216HW,2013-04-06 05:48:00,
2013-04-06 01:53:00,34.5,25.7,30.21,ESE,113,0.0,1.7,70,0.00,,,0.00,WUHU216HW,2013-04-06 05:53:00,
2013-04-06 01:58:00,34.5,25.7,30.22,SE,135,1.1,1.7,70,0.00,,,0.00,WUHU216HW,2013-04-06 05:58:00,
2013-04-06 02:03:00,34.3,25.5,30.22,ESE,113,0.0,1.1,70,0.00,,,0.00,WUHU216HW,2013-04-06 06:03:00,
2013-04-06 02:08:00,34.3,25.5,30.21,ENE,68,0.0,1.5,70,0.00,,,0.00,WUHU216HW,2013-04-06 06:08:00,
2013-04-06 02:13:00,34.5,25.7,30.22,ENE,68,0.6,1.5,70,0.00,,,0.00,WUHU216HW,2013-04-06 06:13:00,
2013-04-06 02:18:00,34.5,25.7,30.21,ESE,113,1.1,1.3,70,0.00,,,0.00,WUHU216HW,2013-04-06 06:18:00,
2013-04-06 02:23:00,34.5,25.7,30.21,ENE,68,0.6,1.1,70,0.00,,,0.00,WUHU216HW,2013-04-06 06:23:00,
2013-04-06 02:28:00,34.5,25.7,30.22,ESE,113,0.0,1.1,70,0.00,,,0.00,WUHU216HW,2013-04-06 06:28:00,
2013-04-06 02:33:00,34.5,25.7,30.21,SE,135,3.5,3.5,70,0.00,,,0.00,WUHU216HW,2013-04-06 06:33:00,
2013-04-06 02:38:00,34.5,25.7,30.21,ESE,113,0.0,3.5,70,0.00,,,0.00,WUHU216HW,2013-04-06 06:38:00,
2013-04-06 02:44:00,34.5,25.7,30.22,ESE,113,2.0,3.5,70,0.00,,,0.00,WUHU216HW,2013-04-06 06:44:00,
2013-04-06 02:49:00,34.5,25.7,30.21,ENE,68,0.0,2.0,70,0.00,,,0.00,WUHU216HW,2013-04-06 06:49:00,
2013-04-06 02:54:00,34.5,25.7,30.21,ENE,68,0.8,2.0,70,0.00,,,0.00,WUHU216HW,2013-04-06 06:54:00,
2013-04-06 02:59:00,34.5,25.3,30.20,ESE,113,2.9,2.9,69,0.00,,,0.00,WUHU216HW,2013-04-06 06:59:00,
2013-04-06 03:04:00,34.5,25.3,30.21,ESE,113,0.0,2.9,69,0.00,,,0.00,WUHU216HW,2013-04-06 07:04:00,
2013-04-06 03:09:00,34.7,25.5,30.21,SE,135,1.1,1.3,69,0.00,,,0.00,WUHU216HW,2013-04-06 07:09:00,
2013-04-06 03:14:00,34.5,25.3,30.21,ESE,113,0.8,1.7,69,0.00,,,0.00,WUHU216HW,2013-04-06 07:14:00,
2013-04-06 03:19:00,34.5,25.3,30.21,ENE,68,0.0,1.7,69,0.00,,,0.00,WUHU216HW,2013-04-06 07:19:00,
2013-04-06 03:24:00,34.7,25.5,30.21,ESE,113,0.0,1.5,69,0.00,,,0.00,WUHU216HW,2013-04-06 07:24:00,
2013-04-06 03:30:00,34.8,25.7,30.21,ENE,68,0.0,1.5,69,0.00,,,0.00,WUHU216HW,2013-04-06 07:30:00,
2013-04-06 03:35:00,34.8,25.7,30.21,ESE,113,2.2,2.2,69,0.00,,,0.00,WUHU216HW,2013-04-06 07:35:00,
2013-04-06 03:40:00,34.8,25.7,30.21,ESE,113,0.0,2.2,69,0.00,,,0.00,WUHU216HW,2013-04-06 07:40:00,
2013-04-06 03:45:00,35.0,25.8,30.21,ESE,113,0.0,0.0,69,0.00,,,0.00,WUHU216HW,2013-04-06 07:45:00,
2013-04-06 03:50:00,35.2,26.0,30.21,ESE,113,0.8,0.8,69,0.00,,,0.00,WUHU216HW,2013-04-06 07:50:00,
2013-04-06 03:55:00,34.8,25.7,30.21,East,90,0.0,0.8,69,0.00,,,0.00,WUHU216HW,2013-04-06 07:55:00,
2013-04-06 04:00:00,34.8,25.7,30.20,ESE,113,2.2,2.2,69,0.00,,,0.00,WUHU216HW,2013-04-06 08:00:00,
2013-04-06 04:05:00,34.8,25.7,30.20,East,90,0.0,2.2,69,0.00,,,0.00,WUHU216HW,2013-04-06 08:05:00,
2013-04-06 04:10:00,34.8,25.7,30.20,ESE,113,0.0,2.2,69,0.00,,,0.00,WUHU216HW,2013-04-06 08:10:00,
2013-04-06 04:15:00,34.8,25.7,30.19,ESE,113,0.0,0.0,69,0.00,,,0.00,WUHU216HW,2013-04-06 08:15:00,
2013-04-06 04:20:00,34.7,25.5,30.20,SE,135,2.9,2.9,69,0.00,,,0.00,WUHU216HW,2013-04-06 08:20:00,
2013-04-06 04:25:00,34.7,25.5,30.20,ESE,113,0.0,2.9,69,0.00,,,0.00,WUHU216HW,2013-04-06 08:25:00,
2013-04-06 04:31:00,34.7,25.5,30.19,East,90,0.8,2.9,69,0.00,,,0.00,WUHU216HW,2013-04-06 08:31:00,
2013-04-06 04:36:00,34.7,25.5,30.18,ESE,113,0.0,2.9,69,0.00,,,0.00,WUHU216HW,2013-04-06 08:36:00,
2013-04-06 04:41:00,34.7,25.5,30.18,East,90,1.5,1.5,69,0.00,,,0.00,WUHU216HW,2013-04-06 08:41:00,
2013-04-06 04:46:00,34.7,25.5,30.18,ESE,113,4.6,4.6,69,0.00,,,0.00,WUHU216HW,2013-04-06 08:46:00,
2013-04-06 04:51:00,34.5,25.3,30.17,SE,135,0.0,4.6,69,0.00,,,0.00,WUHU216HW,2013-04-06 08:51:00,
2013-04-06 04:56:00,34.5,25.3,30.18,SE,135,3.1,3.1,69,0.00,,,0.00,WUHU216HW,2013-04-06 08:56:00,
2013-04-06 05:01:00,34.5,25.3,30.17,ESE,113,3.5,3.5,69,0.00,,,0.00,WUHU216HW,2013-04-06 09:01:00,
2013-04-06 05:07:00,34.5,25.3,30.17,ESE,113,2.6,3.5,69,0.00,,,0.00,WUHU216HW,2013-04-06 09:07:00,
2013-04-06 05:12:00,34.5,25.3,30.17,SE,135,5.8,5.8,69,0.00,,,0.00,WUHU216HW,2013-04-06 09:12:00,
2013-04-06 05:17:00,34.5,25.3,30.16,ESE,113,1.5,5.8,69,0.00,,,0.00,WUHU216HW,2013-04-06 09:17:00,
2013-04-06 05:22:00,34.3,25.1,30.16,ESE,113,0.0,5.8,69,0.00,,,0.00,WUHU216HW,2013-04-06 09:22:00,
2013-04-06 05:27:00,34.5,25.3,30.16,ESE,113,3.1,3.3,69,0.00,,,0.00,WUHU216HW,2013-04-06 09:27:00,
2013-04-06 05:32:00,34.8,25.3,30.16,East,90,2.9,5.8,68,0.00,,,0.00,WUHU216HW,2013-04-06 09:32:00,
2013-04-06 05:37:00,34.8,25.3,30.16,ESE,113,5.8,5.8,68,0.00,,,0.00,WUHU216HW,2013-04-06 09:37:00,
2013-04-06 05:42:00,35.2,25.3,30.16,SE,135,5.3,5.8,67,0.00,,,0.00,WUHU216HW,2013-04-06 09:42:00,
2013-04-06 05:47:00,35.4,25.1,30.16,SE,135,8.2,8.2,66,0.00,,,0.00,WUHU216HW,2013-04-06 09:47:00,
2013-04-06 05:52:00,35.9,25.3,30.16,SE,135,4.4,8.2,65,0.00,,,0.00,WUHU216HW,2013-04-06 09:52:00,
2013-04-06 05:57:00,36.1,25.4,30.16,ESE,113,4.0,8.2,65,0.00,,,0.00,WUHU216HW,2013-04-06 09:57:00,
2013-04-06 06:02:00,36.3,25.2,30.16,ESE,113,4.0,6.4,64,0.00,,,0.00,WUHU216HW,2013-04-06 10:02:00,
2013-04-06 06:08:00,36.5,25.0,30.15,ESE,113,4.6,6.4,63,0.00,,,0.00,WUHU216HW,2013-04-06 10:08:00,
2013-04-06 06:13:00,36.6,25.2,30.15,ENE,68,10.5,10.5,63,0.00,,,0.00,WUHU216HW,2013-04-06 10:13:00,
2013-04-06 06:18:00,37.0,25.0,30.15,ESE,113,7.8,10.5,62,0.00,,,0.00,WUHU216HW,2013-04-06 10:18:00,
2013-04-06 06:23:00,37.0,25.2,30.14,SE,135,4.6,7.8,62,0.00,,,0.00,WUHU216HW,2013-04-06 10:23:00,
2013-04-06 06:28:00,37.2,25.3,30.15,SE,135,5.1,7.8,62,0.00,,,0.00,WUHU216HW,2013-04-06 10:28:00,
2013-04-06 06:33:00,37.2,25.3,30.14,ESE,113,4.6,5.1,62,0.00,,,0.00,WUHU216HW,2013-04-06 10:33:00,
2013-04-06 06:38:00,37.2,24.9,30.15,SSE,158,2.9,6.4,61,0.00,,,0.00,WUHU216HW,2013-04-06 10:38:00,
2013-04-06 06:43:00,37.4,24.8,30.15,East,90,2.6,7.1,60,0.00,,,0.00,WUHU216HW,2013-04-06 10:43:00,
2013-04-06 06:48:00,37.5,24.9,30.14,SE,135,6.7,7.1,60,0.00,,,0.00,WUHU216HW,2013-04-06 10:48:00,
2013-04-06 06:53:00,37.5,24.5,30.14,ESE,113,9.1,9.1,59,0.00,,,0.00,WUHU216HW,2013-04-06 10:53:00,
2013-04-06 06:58:00,37.7,24.6,30.14,SE,135,9.1,9.1,59,0.00,,,0.00,WUHU216HW,2013-04-06 10:58:00,
2013-04-06 07:03:00,37.9,24.8,30.13,SE,135,8.0,9.1,59,0.00,,,0.00,WUHU216HW,2013-04-06 11:03:00,
2013-04-06 07:09:00,37.9,24.8,30.13,East,90,7.3,9.1,59,0.00,,,0.00,WUHU216HW,2013-04-06 11:09:00,
2013-04-06 07:14:00,38.1,24.5,30.13,ESE,113,3.1,7.3,58,0.00,,,0.00,WUHU216HW,2013-04-06 11:14:00,
2013-04-06 07:19:00,38.3,24.7,30.13,SE,135,5.5,5.5,58,0.00,,,0.00,WUHU216HW,2013-04-06 11:19:00,
2013-04-06 07:24:00,38.3,24.7,30.15,SE,135,8.5,8.5,58,0.00,,,0.00,WUHU216HW,2013-04-06 11:24:00,
2013-04-06 07:29:00,38.3,24.7,30.15,ESE,113,8.9,8.9,58,0.00,,,0.00,WUHU216HW,2013-04-06 11:29:00,
2013-04-06 07:33:00,38.4,24.4,30.16,ESE,113,9.1,9.1,57,0.00,,,0.00,WUHU216HW,2013-04-06 11:33:00,
2013-04-06 07:38:00,38.4,24.4,30.16,SE,135,5.5,9.1,57,0.00,,,0.00,WUHU216HW,2013-04-06 11:38:00,
2013-04-06 07:43:00,38.4,24.4,30.16,SE,135,5.1,9.6,57,0.00,,,0.00,WUHU216HW,2013-04-06 11:43:00,
2013-04-06 07:48:00,38.8,24.3,30.16,ESE,113,9.6,10.0,56,0.00,,,0.00,WUHU216HW,2013-04-06 11:48:00,
2013-04-06 07:53:00,38.8,24.3,30.16,ESE,113,9.1,10.0,56,0.00,,,0.00,WUHU216HW,2013-04-06 11:53:00,
2013-04-06 07:58:00,39.0,24.5,30.17,ESE,113,4.0,10.5,56,0.00,,,0.00,WUHU216HW,2013-04-06 11:58:00,
2013-04-06 08:03:00,39.2,24.2,30.17,ENE,68,5.8,10.5,55,0.00,,,0.00,WUHU216HW,2013-04-06 12:03:00,
2013-04-06 08:09:00,39.3,24.4,30.17,SE,135,3.1,7.3,55,0.00,,,0.00,WUHU216HW,2013-04-06 12:09:00,
2013-04-06 08:14:00,39.3,24.4,30.18,ESE,113,4.2,14.5,55,0.00,,,0.00,WUHU216HW,2013-04-06 12:14:00,
2013-04-06 08:19:00,39.5,24.6,30.17,SE,135,6.9,14.5,55,0.00,,,0.00,WUHU216HW,2013-04-06 12:19:00,
2013-04-06 08:24:00,39.7,24.7,30.18,SE,135,5.1,6.9,55,0.00,,,0.00,WUHU216HW,2013-04-06 12:24:00,
2013-04-06 08:29:00,39.9,24.4,30.18,SE,135,7.3,9.1,54,0.00,,,0.00,WUHU216HW,2013-04-06 12:29:00,
2013-04-06 08:34:00,39.9,24.4,30.18,SE,135,8.7,9.1,54,0.00,,,0.00,WUHU216HW,2013-04-06 12:34:00,
2013-04-06 08:40:00,39.9,24.4,30.18,ESE,113,8.5,13.1,54,0.00,,,0.00,WUHU216HW,2013-04-06 12:40:00,
2013-04-06 08:45:00,39.9,24.4,30.18,ESE,113,4.0,13.1,54,0.00,,,0.00,WUHU216HW,2013-04-06 12:45:00,
2013-04-06 08:50:00,40.2,24.8,30.18,ENE,68,4.0,12.0,54,0.00,,,0.00,WUHU216HW,2013-04-06 12:50:00,
2013-04-06 08:55:00,40.4,24.5,30.18,SE,135,2.6,13.8,53,0.00,,,0.00,WUHU216HW,2013-04-06 12:55:00,
2013-04-06 09:00:00,40.6,24.7,30.18,ESE,113,11.4,13.8,53,0.00,,,0.00,WUHU216HW,2013-04-06 13:00:00,
2013-04-06 09:05:00,40.8,24.4,30.17,SE,135,6.2,11.4,52,0.00,,,0.00,WUHU216HW,2013-04-06 13:05:00,
2013-04-06 09:10:00,40.8,24.4,30.17,ESE,113,10.5,11.4,52,0.00,,,0.00,WUHU216HW,2013-04-06 13:10:00,
2013-04-06 09:15:00,41.1,24.7,30.17,ESE,113,12.0,12.0,52,0.00,,,0.00,WUHU216HW,2013-04-06 13:15:00,
2013-04-06 09:20:00,41.5,24.6,30.17,SE,135,7.6,12.0,51,0.00,,,0.00,WUHU216HW,2013-04-06 13:20:00,
2013-04-06 09:25:00,41.5,24.6,30.17,SSE,158,8.0,12.0,51,0.00,,,0.00,WUHU216HW,2013-04-06 13:25:00,
2013-04-06 09:30:00,41.7,24.8,30.17,SE,135,6.9,12.0,51,0.00,,,0.00,WUHU216HW,2013-04-06 13:30:00,
2013-04-06 09:36:00,41.9,25.0,30.17,ESE,113,12.9,12.9,51,0.00,,,0.00,WUHU216HW,2013-04-06 13:36:00,
2013-04-06 09:41:00,42.0,24.8,30.16,SE,135,7.6,12.9,50,0.00,,,0.00,WUHU216HW,2013-04-06 13:41:00,
2013-04-06 09:46:00,42.4,25.1,30.16,ESE,113,6.0,10.5,50,0.00,,,0.00,WUHU216HW,2013-04-06 13:46:00,
2013-04-06 09:51:00,42.4,25.1,30.16,ESE,113,16.5,16.5,50,0.00,,,0.00,WUHU216HW,2013-04-06 13:51:00,
2013-04-06 09:56:00,42.6,25.3,30.16,ESE,113,22.3,22.3,50,0.00,,,0.00,WUHU216HW,2013-04-06 13:56:00,
2013-04-06 10:02:00,42.6,25.3,30.16,ESE,113,12.7,22.3,50,0.00,,,0.00,WUHU216HW,2013-04-06 14:02:00,
2013-04-06 10:07:00,42.9,25.6,30.16,SSE,158,3.5,12.7,50,0.00,,,0.00,WUHU216HW,2013-04-06 14:07:00,
2013-04-06 10:12:00,43.1,25.3,30.16,ESE,113,11.6,20.3,49,0.00,,,0.00,WUHU216HW,2013-04-06 14:12:00,
2013-04-06 10:17:00,43.5,25.6,30.16,SE,135,11.8,20.3,49,0.00,,,0.00,WUHU216HW,2013-04-06 14:17:00,
2013-04-06 10:22:00,43.8,25.9,30.16,SE,135,4.4,11.8,49,0.00,,,0.00,WUHU216HW,2013-04-06 14:22:00,
2013-04-06 10:27:00,44.2,26.2,30.16,SSE,158,5.1,11.8,49,0.00,,,0.00,WUHU216HW,2013-04-06 14:27:00,
2013-04-06 10:32:00,44.4,25.8,30.15,SSE,158,3.8,9.3,48,0.00,,,0.00,WUHU216HW,2013-04-06 14:32:00,
2013-04-06 10:37:00,44.4,25.8,30.15,SE,135,12.0,12.0,48,0.00,,,0.00,WUHU216HW,2013-04-06 14:37:00,
2013-04-06 10:42:00,45.1,26.5,30.14,SSW,203,8.2,12.0,48,0.00,,,0.00,WUHU216HW,2013-04-06 14:42:00,
2013-04-06 10:47:00,45.5,26.3,30.14,SE,135,11.8,21.2,47,0.00,,,0.00,WUHU216HW,2013-04-06 14:47:00,
2013-04-06 10:52:00,45.6,26.4,30.14,ESE,113,6.2,21.2,47,0.00,,,0.00,WUHU216HW,2013-04-06 14:52:00,
2013-04-06 10:58:00,46.0,26.8,30.13,ESE,113,5.1,11.8,47,0.00,,,0.00,WUHU216HW,2013-04-06 14:58:00,
2013-04-06 11:03:00,46.5,26.7,30.13,SSE,158,8.7,8.7,46,0.00,,,0.00,WUHU216HW,2013-04-06 15:03:00,
2013-04-06 11:08:00,46.5,26.7,30.13,ESE,113,6.7,8.7,46,0.00,,,0.00,WUHU216HW,2013-04-06 15:08:00,
2013-04-06 11:13:00,46.7,26.9,30.13,SE,135,8.0,8.7,46,0.00,,,0.00,WUHU216HW,2013-04-06 15:13:00,
2013-04-06 11:18:00,47.1,26.7,30.13,ESE,113,10.0,17.4,45,0.00,,,0.00,WUHU216HW,2013-04-06 15:18:00,
2013-04-06 11:23:00,47.1,26.7,30.12,SE,135,12.9,17.4,45,0.00,,,0.00,WUHU216HW,2013-04-06 15:23:00,
2013-04-06 11:28:00,47.3,26.8,30.12,ESE,113,9.3,13.6,45,0.00,,,0.00,WUHU216HW,2013-04-06 15:28:00,
2013-04-06 11:33:00,47.8,27.3,30.12,SE,135,12.0,13.6,45,0.00,,,0.00,WUHU216HW,2013-04-06 15:33:00,
2013-04-06 11:38:00,48.0,27.5,30.12,SE,135,13.4,13.4,45,0.00,,,0.00,WUHU216HW,2013-04-06 15:38:00,
2013-04-06 11:43:00,48.7,28.1,30.12,SSE,158,11.8,13.4,45,0.00,,,0.00,WUHU216HW,2013-04-06 15:43:00,
2013-04-06 11:48:00,49.1,28.5,30.11,ESE,113,10.7,14.5,45,0.00,,,0.00,WUHU216HW,2013-04-06 15:48:00,
2013-04-06 11:53:00,49.2,28.1,30.11,SSE,158,8.7,14.5,44,0.00,,,0.00,WUHU216HW,2013-04-06 15:53:00,
2013-04-06 11:58:00,49.6,28.4,30.10,SE,135,7.8,16.3,44,0.00,,,0.00,WUHU216HW,2013-04-06 15:58:00,
2013-04-06 12:04:00,50.1,28.9,30.10,SSE,158,9.8,16.3,44,0.00,,,0.00,WUHU216HW,2013-04-06 16:04:00,
2013-04-06 12:09:00,50.3,29.1,30.10,SE,135,9.1,10.7,44,0.00,,,0.00,WUHU216HW,2013-04-06 16:09:00,
2013-04-06 12:14:00,50.5,28.7,30.10,SE,135,11.8,15.2,43,0.00,,,0.00,WUHU216HW,2013-04-06 16:14:00,
2013-04-06 12:19:00,50.9,29.0,30.09,ESE,113,15.6,15.6,43,0.00,,,0.00,WUHU216HW,2013-04-06 16:19:00,
2013-04-06 12:24:00,51.4,29.0,30.09,SE,135,5.1,15.6,42,0.00,,,0.00,WUHU216HW,2013-04-06 16:24:00,
2013-04-06 12:29:00,51.6,29.1,30.09,SSW,203,17.0,17.0,42,0.00,,,0.00,WUHU216HW,2013-04-06 16:29:00,
2013-04-06 12:34:00,51.9,29.4,30.08,SSE,158,8.5,17.0,42,0.00,,,0.00,WUHU216HW,2013-04-06 16:34:00,
2013-04-06 13:00:00,54.1,30.3,30.07,ESE,113,21.4,21.4,40,0.04,,,0.00,WUHU216HW,2013-04-06 17:00:00,
2013-04-06 13:05:00,54.3,30.4,30.07,SSE,158,11.4,21.4,40,0.04,,,0.05,WUHU216HW,2013-04-06 17:05:00,
2013-04-06 13:10:00,55.2,30.9,30.06,ESE,113,21.6,21.6,40,0.06,,,0.07,WUHU216HW,2013-04-06 17:10:00,
2013-04-06 13:15:00,55.2,30.5,30.06,SSE,158,21.9,21.9,39,0.06,,,0.07,WUHU216HW,2013-04-06 17:15:00,
2013-04-06 13:20:00,55.0,29.7,30.06,South,180,14.3,21.9,38,0.06,,,0.07,WUHU216HW,2013-04-06 17:20:00,
2013-04-06 13:25:00,55.5,30.9,30.05,South,180,11.8,14.3,39,0.06,,,0.07,WUHU216HW,2013-04-06 17:25:00,
2013-04-06 13:30:00,56.1,30.7,30.05,SE,135,9.8,13.1,38,0.06,,,0.07,WUHU216HW,2013-04-06 17:30:00,
2013-04-06 13:35:00,56.1,30.7,30.05,SSE,158,14.9,14.9,38,0.06,,,0.07,WUHU216HW,2013-04-06 17:35:00,
2013-04-06 13:40:00,56.4,31.0,30.04,SSE,158,13.4,14.9,38,0.06,,,0.07,WUHU216HW,2013-04-06 17:40:00,
2013-04-06 13:45:00,56.3,30.8,30.03,ESE,113,3.8,14.9,38,0.02,,,0.07,WUHU216HW,2013-04-06 17:45:00,
2013-04-06 13:50:00,56.8,31.3,30.03,SSW,203,8.2,10.9,38,0.02,,,0.07,WUHU216HW,2013-04-06 17:50:00,
2013-04-06 13:55:00,57.0,31.5,30.03,ESE,113,7.3,10.9,38,0.02,,,0.07,WUHU216HW,2013-04-06 17:55:00,
2013-04-06 14:00:00,57.0,31.5,30.03,South,180,11.8,11.8,38,0.02,,,0.07,WUHU216HW,2013-04-06 18:00:00,
2013-04-06 14:06:00,57.3,31.1,30.02,ESE,113,6.2,11.8,37,0.00,,,0.07,WUHU216HW,2013-04-06 18:06:00,
2013-04-06 14:11:00,57.0,30.8,30.02,SSE,158,6.9,12.3,37,0.00,,,0.07,WUHU216HW,2013-04-06 18:11:00,
2013-04-06 14:16:00,57.0,30.8,30.01,SSE,158,13.4,13.4,37,0.00,,,0.07,WUHU216HW,2013-04-06 18:16:00,
2013-04-06 14:21:00,56.8,31.3,30.00,ESE,113,14.9,14.9,38,0.00,,,0.07,WUHU216HW,2013-04-06 18:21:00,
2013-04-06 14:26:00,56.8,30.6,30.00,SSE,158,4.6,14.9,37,0.00,,,0.07,WUHU216HW,2013-04-06 18:26:00,
2013-04-06 14:31:00,56.8,31.3,29.99,ESE,113,9.1,14.9,38,0.00,,,0.07,WUHU216HW,2013-04-06 18:31:00,
2013-04-06 14:36:00,56.8,31.3,29.99,South,180,4.4,9.1,38,0.00,,,0.07,WUHU216HW,2013-04-06 18:36:00,
2013-04-06 14:41:00,56.8,31.3,29.98,SE,135,14.3,14.3,38,0.00,,,0.07,WUHU216HW,2013-04-06 18:41:00,
2013-04-06 14:46:00,57.2,31.6,29.98,ESE,113,14.9,18.5,38,0.00,,,0.07,WUHU216HW,2013-04-06 18:46:00,
2013-04-06 14:52:00,57.9,31.6,29.98,SE,135,12.3,18.5,37,0.00,,,0.07,WUHU216HW,2013-04-06 18:52:00,
2013-04-06 14:57:00,57.7,31.4,29.97,East,90,23.0,23.0,37,0.00,,,0.07,WUHU216HW,2013-04-06 18:57:00,
2013-04-06 15:02:00,57.5,31.2,29.97,SSW,203,4.0,23.0,37,0.00,,,0.07,WUHU216HW,2013-04-06 19:02:00,
2013-04-06 15:07:00,57.7,32.1,29.97,SSE,158,8.9,14.0,38,0.00,,,0.07,WUHU216HW,2013-04-06 19:07:00,
2013-04-06 15:12:00,58.1,31.7,29.95,SE,135,9.8,10.5,37,0.00,,,0.07,WUHU216HW,2013-04-06 19:12:00,
2013-04-06 15:17:00,58.8,32.4,29.95,ESE,113,8.0,12.7,37,0.00,,,0.07,WUHU216HW,2013-04-06 19:17:00,
2013-04-06 15:22:00,59.5,33.2,29.94,South,180,6.4,14.0,37,0.00,,,0.07,WUHU216HW,2013-04-06 19:22:00,
2013-04-06 15:27:00,60.0,32.8,29.94,SSE,158,15.4,15.4,36,0.00,,,0.07,WUHU216HW,2013-04-06 19:27:00,
2013-04-06 15:32:00,60.4,33.1,29.94,SSE,158,4.6,15.4,36,0.00,,,0.07,WUHU216HW,2013-04-06 19:32:00,
2013-04-06 15:37:00,60.6,33.2,29.93,SE,135,12.9,15.4,36,0.00,,,0.07,WUHU216HW,2013-04-06 19:37:00,
2013-04-06 15:42:00,60.8,33.4,29.92,East,90,9.3,13.4,36,0.00,,,0.07,WUHU216HW,2013-04-06 19:42:00,
2013-04-06 15:48:00,61.3,33.9,29.92,SSE,158,8.5,13.4,36,0.00,,,0.07,WUHU216HW,2013-04-06 19:48:00,
2013-04-06 15:53:00,61.8,34.4,29.92,SSW,203,10.0,11.1,36,0.00,,,0.07,WUHU216HW,2013-04-06 19:53:00,
2013-04-06 15:58:00,62.2,34.0,29.91,SE,135,5.8,12.0,35,0.00,,,0.07,WUHU216HW,2013-04-06 19:58:00,
2013-04-06 16:03:00,62.2,34.0,29.91,ESE,113,10.5,14.9,35,0.00,,,0.07,WUHU216HW,2013-04-06 20:03:00,
2013-04-06 16:08:00,62.2,34.7,29.91,ESE,113,10.9,15.6,36,0.06,,,0.13,WUHU216HW,2013-04-06 20:08:00,
2013-04-06 16:13:00,62.7,35.2,29.90,SSE,158,9.3,15.6,36,0.06,,,0.13,WUHU216HW,2013-04-06 20:13:00,
2013-04-06 16:18:00,63.3,34.9,29.90,SE,135,14.9,14.9,35,0.06,,,0.13,WUHU216HW,2013-04-06 20:18:00,
2013-04-06 16:23:00,63.6,35.3,29.90,South,180,11.4,14.9,35,0.06,,,0.13,WUHU216HW,2013-04-06 20:23:00,
2013-04-06 16:28:00,64.0,34.9,29.89,SE,135,10.7,13.8,34,0.06,,,0.13,WUHU216HW,2013-04-06 20:28:00,
2013-04-06 16:33:00,63.6,34.5,29.88,SSE,158,9.6,13.8,34,0.06,,,0.13,WUHU216HW,2013-04-06 20:33:00,
2013-04-06 16:38:00,63.6,35.3,29.89,SSE,158,9.6,10.7,35,0.06,,,0.13,WUHU216HW,2013-04-06 20:38:00,
2013-04-06 16:43:00,63.6,35.3,29.88,SE,135,10.9,10.9,35,0.06,,,0.13,WUHU216HW,2013-04-06 20:43:00,
2013-04-06 16:48:00,63.8,35.4,29.87,SE,135,6.2,10.9,35,0.06,,,0.13,WUHU216HW,2013-04-06 20:48:00,
2013-04-06 16:53:00,64.0,35.6,29.87,South,180,8.5,15.2,35,0.06,,,0.13,WUHU216HW,2013-04-06 20:53:00,
2013-04-06 16:58:00,64.2,35.7,29.87,SSE,158,8.0,15.2,35,0.06,,,0.13,WUHU216HW,2013-04-06 20:58:00,
2013-04-06 17:03:00,64.2,35.7,29.87,SE,135,10.7,11.6,35,0.00,,,0.13,WUHU216HW,2013-04-06 21:03:00,
2013-04-06 17:09:00,64.0,35.6,29.87,SE,135,12.9,12.9,35,0.00,,,0.13,WUHU216HW,2013-04-06 21:09:00,
2013-04-06 17:14:00,64.0,35.6,29.87,South,180,9.8,12.9,35,0.00,,,0.13,WUHU216HW,2013-04-06 21:14:00,
2013-04-06 17:19:00,64.2,35.7,29.87,South,180,20.1,20.1,35,0.00,,,0.13,WUHU216HW,2013-04-06 21:19:00,
2013-04-06 17:24:00,64.5,36.1,29.86,SE,135,6.0,20.1,35,0.00,,,0.13,WUHU216HW,2013-04-06 21:24:00,
2013-04-06 17:30:00,64.5,36.8,29.86,SE,135,5.1,10.7,36,0.00,,,0.13,WUHU216HW,2013-04-06 21:30:00,
2013-04-06 17:35:00,64.5,36.8,29.86,SE,135,6.9,9.3,36,0.00,,,0.13,WUHU216HW,2013-04-06 21:35:00,
2013-04-06 17:40:00,64.7,36.2,29.86,SSE,158,8.9,9.3,35,0.00,,,0.13,WUHU216HW,2013-04-06 21:40:00,
2013-04-06 17:45:00,65.1,37.3,29.86,SE,135,6.4,9.3,36,0.00,,,0.13,WUHU216HW,2013-04-06 21:45:00,
2013-04-06 17:50:00,65.4,36.9,29.85,SSE,158,7.6,9.8,35,0.00,,,0.13,WUHU216HW,2013-04-06 21:50:00,
2013-04-06 17:55:00,65.6,37.0,29.85,SSW,203,21.4,21.4,35,0.00,,,0.13,WUHU216HW,2013-04-06 21:55:00,
2013-04-06 18:00:00,65.8,37.2,29.85,SE,135,4.4,21.4,35,0.00,,,0.13,WUHU216HW,2013-04-06 22:00:00,
2013-04-06 18:05:00,66.0,38.1,29.86,SSE,158,6.0,21.4,36,0.00,,,0.13,WUHU216HW,2013-04-06 22:05:00,
2013-04-06 18:10:00,66.7,38.0,29.85,SSE,158,10.5,10.5,35,0.00,,,0.13,WUHU216HW,2013-04-06 22:10:00,
2013-04-06 18:15:00,67.1,37.6,29.85,SSE,158,5.3,15.2,34,0.00,,,0.13,WUHU216HW,2013-04-06 22:15:00,
2013-04-06 18:20:00,67.2,37.7,29.85,SSE,158,6.7,15.2,34,0.00,,,0.13,WUHU216HW,2013-04-06 22:20:00,
2013-04-06 18:25:00,67.2,37.7,29.85,SSW,203,5.8,10.2,34,0.00,,,0.13,WUHU216HW,2013-04-06 22:25:00,
2013-04-06 18:30:00,67.1,37.6,29.84,SSE,158,7.3,17.6,34,0.00,,,0.13,WUHU216HW,2013-04-06 22:30:00,
2013-04-06 18:35:00,66.7,38.0,29.85,SSW,203,11.6,17.6,35,0.00,,,0.13,WUHU216HW,2013-04-06 22:35:00,
2013-04-06 18:40:00,66.3,37.7,29.85,South,180,6.7,11.6,35,0.00,,,0.13,WUHU216HW,2013-04-06 22:40:00,
2013-04-06 18:46:00,66.5,37.8,29.85,SSE,158,7.6,11.6,35,0.00,,,0.13,WUHU216HW,2013-04-06 22:46:00,
2013-04-06 18:51:00,66.5,38.6,29.85,SE,135,5.1,12.0,36,0.00,,,0.13,WUHU216HW,2013-04-06 22:51:00,
2013-04-06 18:56:00,66.5,38.6,29.85,ESE,113,8.9,12.0,36,0.00,,,0.13,WUHU216HW,2013-04-06 22:56:00,
2013-04-06 19:01:00,66.5,38.6,29.85,SSE,158,5.5,8.9,36,0.00,,,0.13,WUHU216HW,2013-04-06 23:01:00,
2013-04-06 19:06:00,66.5,38.6,29.85,SE,135,8.9,16.7,36,0.00,,,0.13,WUHU216HW,2013-04-06 23:06:00,
2013-04-06 19:11:00,66.5,38.6,29.85,South,180,5.5,16.7,36,0.00,,,0.13,WUHU216HW,2013-04-06 23:11:00,
2013-04-06 19:16:00,66.5,38.6,29.84,SSE,158,5.1,8.0,36,0.00,,,0.13,WUHU216HW,2013-04-06 23:16:00,
2013-04-06 19:22:00,66.3,38.4,29.84,SSW,203,14.3,14.9,36,0.00,,,0.13,WUHU216HW,2013-04-06 23:22:00,
2013-04-06 19:27:00,66.0,38.1,29.83,SSE,158,4.0,14.9,36,0.00,,,0.13,WUHU216HW,2013-04-06 23:27:00,
2013-04-06 19:32:00,66.0,38.1,29.82,SSW,203,13.6,13.8,36,0.00,,,0.13,WUHU216HW,2013-04-06 23:32:00,
2013-04-06 19:38:00,65.6,37.8,29.82,ESE,113,10.2,15.6,36,0.00,,,0.13,WUHU216HW,2013-04-06 23:38:00,
2013-04-06 19:43:00,65.4,38.3,29.81,SSE,158,7.3,15.6,37,0.00,,,0.13,WUHU216HW,2013-04-06 23:43:00,
2013-04-06 19:48:00,65.3,38.2,29.81,SSE,158,9.1,10.2,37,0.00,,,0.13,WUHU216HW,2013-04-06 23:48:00,
2013-04-06 19:53:00,65.1,38.0,29.82,SE,135,6.0,17.2,37,0.00,,,0.13,WUHU216HW,2013-04-06 23:53:00,
2013-04-06 19:58:00,64.9,37.8,29.82,SE,135,17.6,17.6,37,0.00,,,0.13,WUHU216HW,2013-04-06 23:58:00,
2013-04-06 20:03:00,64.7,37.7,29.82,SSE,158,8.9,17.6,37,0.00,,,0.13,WUHU216HW,2013-04-07 00:03:00,
2013-04-06 20:08:00,64.5,38.2,29.82,SE,135,5.1,15.2,38,0.00,,,0.13,WUHU216HW,2013-04-07 00:08:00,
2013-04-06 20:13:00,64.2,37.9,29.82,SSE,158,8.2,13.1,38,0.00,,,0.13,WUHU216HW,2013-04-07 00:13:00,
2013-04-06 20:18:00,64.2,37.9,29.81,SSE,158,10.5,10.7,38,0.00,,,0.13,WUHU216HW,2013-04-07 00:18:00,
2013-04-06 20:23:00,64.0,37.7,29.82,ESE,113,10.5,12.9,38,0.00,,,0.13,WUHU216HW,2013-04-07 00:23:00,
2013-04-06 20:28:00,64.0,37.7,29.81,SSE,158,13.1,13.1,38,0.00,,,0.13,WUHU216HW,2013-04-07 00:28:00,
2013-04-06 20:33:00,63.8,37.6,29.80,SE,135,7.8,13.1,38,0.00,,,0.13,WUHU216HW,2013-04-07 00:33:00,
2013-04-06 20:38:00,63.6,38.1,29.79,South,180,10.0,10.0,39,0.00,,,0.13,WUHU216HW,2013-04-07 00:38:00,
2013-04-06 20:43:00,63.6,38.1,29.79,SE,135,3.8,10.2,39,0.00,,,0.13,WUHU216HW,2013-04-07 00:43:00,
2013-04-06 20:48:00,63.3,37.8,29.78,ESE,113,17.2,17.2,39,0.00,,,0.13,WUHU216HW,2013-04-07 00:48:00,
2013-04-06 20:53:00,63.3,37.8,29.78,ESE,113,10.9,17.2,39,0.00,,,0.13,WUHU216HW,2013-04-07 00:53:00,
2013-04-06 20:58:00,63.1,37.7,29.79,SSW,203,3.8,17.2,39,0.00,,,0.13,WUHU216HW,2013-04-07 00:58:00,
2013-04-06 21:03:00,63.1,37.7,29.79,SE,135,6.9,10.9,39,0.00,,,0.13,WUHU216HW,2013-04-07 01:03:00,
2013-04-06 21:08:00,63.1,37.7,29.79,SSE,158,10.9,12.9,39,0.00,,,0.13,WUHU216HW,2013-04-07 01:08:00,
2013-04-06 21:13:00,62.9,37.5,29.80,SSE,158,12.3,12.9,39,0.00,,,0.13,WUHU216HW,2013-04-07 01:13:00,
2013-04-06 21:18:00,62.9,37.5,29.79,South,180,8.9,12.3,39,0.00,,,0.13,WUHU216HW,2013-04-07 01:18:00,
2013-04-06 21:24:00,62.7,37.3,29.79,SSE,158,8.0,11.8,39,0.00,,,0.13,WUHU216HW,2013-04-07 01:24:00,
2013-04-06 21:29:00,62.7,38.1,29.79,South,180,9.1,11.8,40,0.00,,,0.13,WUHU216HW,2013-04-07 01:29:00,
2013-04-06 21:34:00,62.6,37.9,29.79,South,180,2.6,9.6,40,0.00,,,0.13,WUHU216HW,2013-04-07 01:34:00,
2013-04-06 21:39:00,62.4,37.7,29.79,SSE,158,9.6,9.6,40,0.00,,,0.13,WUHU216HW,2013-04-07 01:39:00,
2013-04-06 21:44:00,62.4,38.3,29.80,SW,225,14.3,14.3,41,0.00,,,0.13,WUHU216HW,2013-04-07 01:44:00,
2013-04-06 21:49:00,62.0,38.6,29.80,South,180,7.3,14.3,42,0.00,,,0.13,WUHU216HW,2013-04-07 01:49:00,
2013-04-06 21:54:00,61.7,38.8,29.80,South,180,15.6,15.6,43,0.00,,,0.13,WUHU216HW,2013-04-07 01:54:00,
2013-04-06 21:59:00,61.1,39.5,29.80,SSW,203,6.0,15.6,45,0.00,,,0.13,WUHU216HW,2013-04-07 01:59:00,
2013-04-06 22:04:00,60.6,39.6,29.80,South,180,8.5,8.5,46,0.00,,,0.13,WUHU216HW,2013-04-07 02:04:00,
2013-04-06 22:09:00,60.4,39.4,29.80,South,180,5.3,8.5,46,0.00,,,0.13,WUHU216HW,2013-04-07 02:09:00,
2013-04-06 22:14:00,60.4,39.4,29.80,South,180,8.0,11.8,46,0.00,,,0.13,WUHU216HW,2013-04-07 02:14:00,
2013-04-06 22:19:00,60.4,39.4,29.79,WSW,248,3.8,11.8,46,0.00,,,0.13,WUHU216HW,2013-04-07 02:19:00,
2013-04-06 22:25:00,60.2,39.8,29.79,SSW,203,12.3,12.3,47,0.00,,,0.13,WUHU216HW,2013-04-07 02:25:00,
2013-04-06 22:30:00,60.4,40.0,29.78,SSW,203,16.1,16.1,47,0.00,,,0.13,WUHU216HW,2013-04-07 02:30:00,
2013-04-06 22:35:00,60.6,40.1,29.79,SSE,158,7.6,16.1,47,0.00,,,0.13,WUHU216HW,2013-04-07 02:35:00,
2013-04-06 22:40:00,61.1,40.6,29.78,SSE,158,7.6,15.2,47,0.00,,,0.13,WUHU216HW,2013-04-07 02:40:00,
2013-04-06 22:45:00,61.5,40.4,29.77,SSW,203,9.6,15.2,46,0.00,,,0.13,WUHU216HW,2013-04-07 02:45:00,
2013-04-06 22:50:00,61.7,40.5,29.78,South,180,7.1,9.8,46,0.00,,,0.13,WUHU216HW,2013-04-07 02:50:00,
2013-04-06 22:55:00,62.2,41.0,29.78,SSE,158,18.7,26.3,46,0.00,,,0.13,WUHU216HW,2013-04-07 02:55:00,
2013-04-06 23:00:00,62.6,41.3,29.78,SSE,158,11.1,26.3,46,0.02,,,0.15,WUHU216HW,2013-04-07 03:00:00,
2013-04-06 23:05:00,62.4,41.2,29.77,SSW,203,14.0,23.2,46,0.02,,,0.15,WUHU216HW,2013-04-07 03:05:00,
2013-04-06 23:10:00,62.6,41.3,29.76,SSW,203,15.2,16.7,46,0.02,,,0.15,WUHU216HW,2013-04-07 03:10:00,
2013-04-06 23:15:00,62.7,41.5,29.76,South,180,14.5,16.1,46,0.02,,,0.15,WUHU216HW,2013-04-07 03:15:00,
2013-04-06 23:21:00,62.6,41.3,29.76,South,180,13.1,22.3,46,0.02,,,0.15,WUHU216HW,2013-04-07 03:21:00,
2013-04-06 23:26:00,62.4,41.2,29.75,SSW,203,18.1,22.3,46,0.02,,,0.15,WUHU216HW,2013-04-07 03:26:00,
2013-04-06 23:31:00,62.4,41.2,29.75,South,180,14.9,21.6,46,0.02,,,0.15,WUHU216HW,2013-04-07 03:31:00,
2013-04-06 23:36:00,62.4,41.2,29.74,SSW,203,7.3,18.5,46,0.02,,,0.15,WUHU216HW,2013-04-07 03:36:00,
2013-04-06 23:41:00,62.2,41.6,29.75,South,180,12.3,18.5,47,0.02,,,0.15,WUHU216HW,2013-04-07 03:41:00,
2013-04-06 23:46:00,62.2,41.6,29.74,SSE,158,18.3,18.3,47,0.02,,,0.15,WUHU216HW,2013-04-07 03:46:00,
2013-04-06 23:51:00,62.4,41.8,29.74,SW,225,14.5,19.0,47,0.02,,,0.15,WUHU216HW,2013-04-07 03:51:00,
2013-04-06 23:56:00,62.4,41.8,29.74,South,180,10.9,19.0,47,0.00,,,0.15,WUHU216HW,2013-04-07 03:56:00,